IRIDIUM 8 [+] 1 24792U 97020A 12135.69631815 .00000179 00000-0 56909-4 0 8992 2 24792 86.3977 15.9016 0002429 82.2959 277.8566 14.34213663786678 IRIDIUM 7 [+] 1 24793U 97020B 12135.75975031 -.00000007 00000-0 -97147-5 0 8993 2 24793 86.3968 16.0565 0002277 85.4860 274.6649 14.34211583786684 IRIDIUM 6 [+] 1 24794U 97020C 12135.75337740 .00000351 00000-0 11813-3 0 6951 2 24794 86.3964 16.0309 0002268 84.6618 275.4823 14.34221836786684 IRIDIUM 5 [+] 1 24795U 97020D 12135.74706965 .00000318 00000-0 10645-3 0 791 2 24795 86.3963 16.1518 0001755 109.3182 250.8217 14.34213277786761 IRIDIUM 4 [+] 1 24796U 97020E 12135.70267150 .00000286 00000-0 95055-4 0 9293 2 24796 86.3963 15.7700 0002378 83.1793 276.9665 14.34212384786695 IRIDIUM 914 [-] 1 24836U 97030A 12135.95830375 .00000415 00000-0 13130-3 0 4721 2 24836 86.3955 37.4101 0004076 74.5580 285.6067 14.37770964781708 IRIDIUM 12 [+] 1 24837U 97030B 12135.83295024 .00000412 00000-0 13991-3 0 9249 2 24837 86.3956 47.2924 0002475 79.7621 280.3834 14.34221084780441 IRIDIUM 10 [+] 1 24839U 97030D 12135.82026004 .00000396 00000-0 13440-3 0 9262 2 24839 86.3962 47.2891 0002500 78.7696 281.3767 14.34220635780451 IRIDIUM 13 [+] 1 24840U 97030E 12135.83928772 .00000356 00000-0 12002-3 0 8727 2 24840 86.3962 47.3801 0002464 77.7411 282.4035 14.34220830780444 IRIDIUM 16 [-] 1 24841U 97030F 12135.84595702 .00000916 00000-0 31102-3 0 9020 2 24841 86.4038 48.0411 0000691 116.2454 243.8812 14.35638735780713 IRIDIUM 911 [-] 1 24842U 97030G 12135.82939267 .00000393 00000-0 10991-3 0 5597 2 24842 86.4473 49.8206 0015688 131.1483 229.1072 14.43619375784568 IRIDIUM 15 [+] 1 24869U 97034A 12135.83004966 .00000387 00000-0 13128-3 0 9604 2 24869 86.3937 78.9968 0002491 82.5267 277.6213 14.34215149777418 IRIDIUM 17 [-] 1 24870U 97034B 12135.88242582 .00000280 00000-0 91906-4 0 8971 2 24870 86.3948 78.6502 0002545 63.2280 296.9166 14.34763015777471 IRIDIUM 920 [-] 1 24871U 97034C 12135.85205891 .00000490 00000-0 15433-3 0 5151 2 24871 86.3968 69.2928 0011430 344.9447 15.1399 14.38418221778963 IRIDIUM 18 [+] 1 24872U 97034D 12135.79197611 .00000023 00000-0 11165-5 0 8969 2 24872 86.3941 79.1927 0002244 79.4876 280.6556 14.34213554777403 IRIDIUM 921 [-] 1 24873U 97034E 12135.94445720 .00002356 00000-0 18863-3 0 9742 2 24873 86.3885 218.3582 0007117 327.3009 32.7780 14.99685912808291 IRIDIUM 26 [-] 1 24903U 97043A 12135.90300844 .00000276 00000-0 91271-4 0 238 2 24903 86.3922 312.6488 0002405 83.8549 276.2935 14.34358312771362 IRIDIUM 25 [+] 1 24904U 97043B 12135.87973550 .00000177 00000-0 56009-4 0 9212 2 24904 86.3923 312.5979 0002254 84.1864 275.9595 14.34212707771325 IRIDIUM 46 [+] 1 24905U 97043C 12135.89240531 -.00000659 00000-0 -24232-3 0 9355 2 24905 86.3928 312.9719 0002316 83.2804 276.8663 14.34211830771333 IRIDIUM 23 [S] 1 24906U 97043D 12135.93681655 .00000148 00000-0 45825-4 0 9383 2 24906 86.3920 312.4924 0002221 84.4989 275.6468 14.34212521771340 IRIDIUM 22 [+] 1 24907U 97043E 12135.93046917 .00000112 00000-0 32956-4 0 9012 2 24907 86.3945 313.0281 0002332 82.9071 277.2401 14.34212584771343 DUMMY MASS 1 [-] 1 24925U 97048A 12136.62909426 .00000277 00000-0 29770-4 0 1763 2 24925 86.3370 179.6223 0008827 113.0615 247.1538 14.84134961795836 DUMMY MASS 2 [-] 1 24926U 97048B 12136.65226933 .00000279 00000-0 30263-4 0 1662 2 24926 86.3397 180.4253 0009218 117.5093 242.7066 14.83913157795729 IRIDIUM 29 [+] 1 24944U 97051A 12135.66113514 .00000103 00000-0 29836-4 0 8630 2 24944 86.3943 344.3178 0002385 85.5078 274.6376 14.34217995767874 IRIDIUM 32 [+] 1 24945U 97051B 12135.68017101 .00000170 00000-0 53811-4 0 8957 2 24945 86.3940 344.3308 0002350 84.3744 275.7716 14.34215256767896 IRIDIUM 33 [-] 1 24946U 97051C 12135.87160048 .00000226 00000-0 75965-4 0 9911 2 24946 86.3863 344.4249 0008127 160.6220 199.5287 14.32751905767734 IRIDIUM 28 [-] 1 24948U 97051E 12135.88169358 .00000236 00000-0 76531-4 0 7499 2 24948 86.3958 344.3110 0002066 84.5145 275.6287 14.34599968767910 IRIDIUM 30 [+] 1 24949U 97051F 12135.60405456 .00000079 00000-0 21310-4 0 9416 2 24949 86.3944 344.4311 0002306 82.2992 277.8449 14.34216816767868 IRIDIUM 31 [+] 1 24950U 97051G 12135.66748205 .00000103 00000-0 29555-4 0 8816 2 24950 86.3952 344.4070 0002324 80.9246 279.2200 14.34217648767885 IRIDIUM 19 [+] 1 24965U 97056A 12135.72169252 -.00000066 00000-0 -30762-4 0 8837 2 24965 86.3971 15.8793 0002310 85.1783 274.9704 14.34211670766037 IRIDIUM 35 [+] 1 24966U 97056B 12135.73438177 .00000273 00000-0 90433-4 0 9317 2 24966 86.3969 15.8887 0002391 81.0242 279.1221 14.34213689766014 IRIDIUM 36 [-] 1 24967U 97056C 12135.72468067 .00000333 00000-0 11092-3 0 8609 2 24967 86.3990 15.9322 0002534 82.7934 277.3544 14.34616732766170 IRIDIUM 37 [+] 1 24968U 97056D 12135.70900408 .00000329 00000-0 11047-3 0 8894 2 24968 86.3973 16.0309 0002416 85.8265 274.3200 14.34213968766012 IRIDIUM 34 [+] 1 24969U 97056E 12136.21638519 -.00000553 00000-0 -20439-3 0 8710 2 24969 86.3966 15.7591 0002371 82.4482 277.6938 14.34217325766080 IRIDIUM 43 [+] 1 25039U 97069A 12136.27401865 .00000166 00000-0 52126-4 0 8752 2 25039 86.3928 78.9786 0002887 89.8169 270.3393 14.34211359759874 IRIDIUM 41 [+] 1 25040U 97069B 12136.33745436 .00000217 00000-0 70465-4 0 8760 2 25040 86.3943 78.8745 0002209 80.2318 279.9163 14.34210146759880 IRIDIUM 40 [+] 1 25041U 97069C 12136.29306399 .00000202 00000-0 65113-4 0 9069 2 25041 86.3938 78.8480 0002485 82.8463 277.3043 14.34210619759891 IRIDIUM 39 [+] 1 25042U 97069D 12136.29939945 .00000443 00000-0 15102-3 0 8775 2 25042 86.3942 79.1028 0002097 71.8278 288.3157 14.34211179759878 IRIDIUM 38 [-] 1 25043U 97069E 12136.35257900 .00000419 00000-0 14009-3 0 8810 2 25043 86.3946 77.7936 0001356 93.0527 267.0816 14.35029419760058 IRIDIUM 42 [+] 1 25077U 97077A 12136.28671274 .00000210 00000-0 67973-4 0 8854 2 25077 86.3935 78.9472 0002421 81.9996 278.1444 14.34214863755738 IRIDIUM 44 [-] 1 25078U 97077B 12136.31819631 .00000334 00000-0 10617-3 0 3539 2 25078 86.3954 72.6659 0000857 76.9823 283.1469 14.36958399756579 IRIDIUM 45 [+] 1 25104U 97082A 12136.44421874 -.00000548 00000-0 -20290-3 0 8427 2 25104 86.3917 312.3564 0002395 83.1377 277.0133 14.34210757753956 IRIDIUM 24 [-] 1 25105U 97082B 12136.50576061 .00000337 00000-0 10358-3 0 4181 2 25105 86.3880 299.5655 0012077 349.9169 10.1785 14.38677960755502 IRIDIUM 47 [+] 1 25106U 97082C 12136.45692412 .00000157 00000-0 49004-4 0 8191 2 25106 86.3921 312.2874 0002203 66.4836 293.6609 14.34213400753958 IRIDIUM 49 [+] 1 25108U 97082E 12136.46960733 .00000106 00000-0 30810-4 0 8445 2 25108 86.3914 312.3345 0002269 81.4320 278.7147 14.34212828753968 IRIDIUM 52 [+] 1 25169U 98010A 12136.28960902 .00000427 00000-0 14545-3 0 6150 2 25169 86.3964 47.3090 0002451 84.2673 275.8795 14.34221559745348 IRIDIUM 56 [+] 1 25170U 98010B 12136.28327937 .00000374 00000-0 12655-3 0 6361 2 25170 86.3969 47.3827 0002471 84.4780 275.6715 14.34220907745320 IRIDIUM 54 [+] 1 25171U 98010C 12136.31497958 .00000399 00000-0 13557-3 0 8447 2 25171 86.3972 47.3090 0002480 79.9427 280.2036 14.34220621745493 IRIDIUM 50 [+] 1 25172U 98010D 12136.27693496 .00000421 00000-0 14319-3 0 8766 2 25172 86.3960 47.2912 0002476 83.0091 277.1386 14.34220545745321 IRIDIUM 53 [+] 1 25173U 98010E 12136.22618814 .00000367 00000-0 12408-3 0 8567 2 25173 86.3967 47.3194 0002448 81.3733 278.7745 14.34221233745326 IRIDIUM 51 [S] 1 25262U 98018A 12136.21179186 .00000344 00000-0 96843-4 0 9828 2 25262 86.4480 15.9811 0002389 83.1466 277.0000 14.42949873744668 IRIDIUM 61 [+] 1 25263U 98018B 12136.20372981 .00000271 00000-0 89744-4 0 8084 2 25263 86.3969 15.7950 0002359 85.0850 275.0612 14.34213211740414 IRIDIUM 55 [+] 1 25272U 98019A 12136.13684164 -.00000570 00000-0 -21066-3 0 8105 2 25272 86.3945 344.0616 0002336 83.2302 276.9168 14.34211270739600 IRIDIUM 57 [+] 1 25273U 98019B 12136.11146602 .00000079 00000-0 20982-4 0 8529 2 25273 86.3947 344.2967 0002354 82.9692 277.1768 14.34217434739609 IRIDIUM 58 [+] 1 25274U 98019C 12136.11780630 .00000006 00000-0 -47464-5 0 6642 2 25274 86.3954 344.4376 0002294 85.3044 274.8411 14.34217312739609 IRIDIUM 59 [+] 1 25275U 98019D 12136.47298665 .00000106 00000-0 30613-4 0 4582 2 25275 86.3967 344.2448 0002623 63.8951 296.2507 14.34216689739651 IRIDIUM 60 [+] 1 25276U 98019E 12136.27003194 -.00000032 00000-0 -18603-4 0 8873 2 25276 86.3947 344.0196 0002313 84.7129 275.4319 14.34216729739625 IRIDIUM 62 [+] 1 25285U 98021A 12136.44084249 .00000300 00000-0 10015-3 0 8576 2 25285 86.3919 280.8021 0002322 88.4895 271.6589 14.34216955738604 IRIDIUM 63 [+] 1 25286U 98021B 12136.30766188 .00000325 00000-0 10887-3 0 8744 2 25286 86.3921 280.9709 0002619 82.5343 277.6155 14.34224762738581 IRIDIUM 64 [+] 1 25287U 98021C 12136.31399101 .00000286 00000-0 95039-4 0 8113 2 25287 86.3914 280.8806 0002337 84.0164 276.1302 14.34216665738565 IRIDIUM 65 [+] 1 25288U 98021D 12136.45987313 .00000273 00000-0 90423-4 0 8564 2 25288 86.3915 280.7577 0001978 82.9622 277.1804 14.34216378738601 IRIDIUM 66 [+] 1 25289U 98021E 12136.46620912 .00000352 00000-0 11856-3 0 7968 2 25289 86.3908 280.6741 0002291 85.8407 274.3061 14.34217526738608 IRIDIUM 67 [+] 1 25290U 98021F 12136.47255458 .00000282 00000-0 93726-4 0 6317 2 25290 86.3919 280.7793 0002353 86.7428 273.4031 14.34216972738614 IRIDIUM 68 [+] 1 25291U 98021G 12136.33934995 .00000321 00000-0 10773-3 0 8432 2 25291 86.3924 280.9191 0002339 81.1198 279.0271 14.34216492738561 IRIDIUM 69 [-] 1 25319U 98026A 12136.50404339 .00000307 00000-0 96028-4 0 6576 2 25319 86.3945 306.9499 0000807 70.4327 289.6956 14.37489727735906 IRIDIUM 71 [-] 1 25320U 98026B 12136.46981792 .00000289 00000-0 89138-4 0 3543 2 25320 86.3933 303.7831 0002976 24.1121 336.0220 14.38029012736244 IRIDIUM 70 [+] 1 25342U 98032A 12136.43450022 .00000362 00000-0 12213-3 0 8780 2 25342 86.3939 281.0346 0002261 79.1836 280.9625 14.34217460732685 IRIDIUM 72 [+] 1 25343U 98032B 12136.42181235 .00000310 00000-0 10349-3 0 8597 2 25343 86.3913 280.7728 0002304 85.1265 275.0189 14.34217093732681 IRIDIUM 73 [-] 1 25344U 98032C 12136.40979733 .00000429 00000-0 11101-3 0 7399 2 25344 86.4393 267.6229 0002687 80.2536 279.8969 14.47583209738500 IRIDIUM 74 [S] 1 25345U 98032D 12136.44025788 .00000434 00000-0 12378-3 0 8907 2 25345 86.4433 281.0014 0002354 88.4071 271.7415 14.42948501734714 IRIDIUM 75 [+] 1 25346U 98032E 12136.42814586 .00000310 00000-0 10364-3 0 8825 2 25346 86.3920 280.9563 0002359 86.3894 273.7575 14.34215994733258 IRIDIUM 3 [+] 1 25431U 98048A 12136.48228672 .00000067 00000-0 16805-4 0 8071 2 25431 86.3924 312.5397 0002084 66.8807 293.2610 14.34212061719204 IRIDIUM 76 [+] 1 25432U 98048B 12136.43154746 .00000152 00000-0 47302-4 0 7482 2 25432 86.3928 312.3743 0002766 73.4510 286.7002 14.34212931719189 IRIDIUM 82 [+] 1 25467U 98051A 12136.33111184 .00000319 00000-0 10701-3 0 9863 2 25467 86.3960 79.0113 0002194 90.9483 269.1939 14.34215294720180 IRIDIUM 81 [+] 1 25468U 98051B 12136.32476877 .00000394 00000-0 13366-3 0 8037 2 25468 86.3936 78.7426 0002567 81.9980 278.1518 14.34216113716407 IRIDIUM 80 [+] 1 25469U 98051C 12136.30575196 -.00000203 00000-0 -79694-4 0 8050 2 25469 86.3944 78.9465 0002490 86.2465 273.9043 14.34209487716405 IRIDIUM 77 [+] 1 25471U 98051E 12136.31209846 -.00000227 00000-0 -87981-4 0 9763 2 25471 86.3934 78.7063 0002474 58.8485 301.3008 14.34208902721604 IRIDIUM 2 [-] 1 25527U 98066A 12136.39940045 .00003512 00000-0 27062-3 0 3318 2 25527 85.5629 34.3509 0010285 5.9518 354.1838 15.01279183737495 IRIDIUM 86 [+] 1 25528U 98066B 12136.27058265 .00000383 00000-0 12965-3 0 383 2 25528 86.3947 46.9276 0002024 67.8652 292.2761 14.34221373712927 IRIDIUM 84 [+] 1 25530U 98066D 12136.30228733 .00000484 00000-0 16570-3 0 6934 2 25530 86.3964 47.0463 0002471 76.8782 283.2680 14.34220528710568 IRIDIUM 83 [+] 1 25531U 98066E 12136.40377279 .00000475 00000-0 16237-3 0 8242 2 25531 86.3967 47.0553 0002430 80.5464 279.6010 14.34221589707937 IRIDIUM 20 [+] 1 25577U 98074A 12136.46325650 .00000123 00000-0 36845-4 0 7318 2 25577 86.3917 312.3097 0002289 82.5215 277.6261 14.34213099702029 IRIDIUM 11 [+] 1 25578U 98074B 12136.47594767 .00000038 00000-0 66757-5 0 9635 2 25578 86.3920 312.5242 0002111 89.3255 270.8192 14.34212468710993 IRIDIUM 14 [S] 1 25777U 99032A 12136.44153512 -.00001046 00000-0 -24853-3 0 9548 2 25777 86.5101 280.8380 0002231 84.5427 275.6205 14.54932149686524 IRIDIUM 21 [+] 1 25778U 99032B 12136.48524304 .00000320 00000-0 10726-3 0 7986 2 25778 86.3915 280.8316 0004208 72.9033 287.2625 14.34217016681702 IRIDIUM 91 [+] 1 27372U 02005A 12136.10511746 .00000071 00000-0 18390-4 0 4084 2 27372 86.3962 344.5801 0003209 157.8252 202.3083 14.34218064545168 IRIDIUM 90 [S] 1 27373U 02005B 12136.28668057 .00000503 00000-0 14455-3 0 3763 2 27373 86.4469 47.0008 0007424 74.8790 285.3226 14.42963173543293 IRIDIUM 94 [S] 1 27374U 02005C 12136.46373799 .00000479 00000-0 82635-4 0 5489 2 27374 85.9383 326.5781 0008291 120.7003 239.5046 14.66241473548965 IRIDIUM 95 [+] 1 27375U 02005D 12136.14317298 -.00000489 00000-0 -18185-3 0 3677 2 27375 86.3960 344.3584 0002396 81.3771 278.7690 14.34212051544450 IRIDIUM 96 [S] 1 27376U 02005E 12136.26607420 .00000463 00000-0 79872-4 0 5347 2 27376 86.5760 343.9161 0002618 86.5381 273.6130 14.66250895548931 IRIDIUM 97 [+] 1 27450U 02031A 12136.22910342 .00000153 00000-0 47642-4 0 2753 2 27450 86.3970 15.9109 0003393 142.8158 217.3278 14.34213014523783 IRIDIUM 98 [S] 1 27451U 02031B 12136.31200118 .00000507 00000-0 14577-3 0 3436 2 27451 86.4475 79.4356 0004157 142.3474 217.8032 14.42957864524151